Regional Weather Roundup
Issued by NWS Goodland, KS

Home | Current Version | Previous Version | Text Only | Print | Product List | Glossary On
Versions: 1 2 3 4 5 6 7 8 9 10 11 12 13 14 15 16 17 18 19 20 21 22 23 24 25 26 27 28 29 30 31 32 33 34 35 36 37 38 39 40 41 42 43 44 45 46 47 48 49 50
000
ASUS43 KGLD 311708
RWRGLD

GOODLAND FORECAST AREA HOURLY WEATHER ROUNDUP
NATIONAL WEATHER SERVICE GOODLAND KS
1100 AM MDT FRI JUL 31 2015

...OFFICIAL OBSERVATIONS...

CITY           SKY/WX    TMP DP  RH WIND       PRES   REMARKS
GOODLAND KS    SUNNY     82  65  56 SW13      30.27F
HILL CITY KS   SUNNY     86  67  52 SW9       30.20F
IMPERIAL NEB   SUNNY     85  57  38 SE6       30.24F
MCCOOK NEB     SUNNY     89  65  44 SW8       30.21S
AKRON CO       SUNNY     85  54  34 S10G18    30.31S
BURLINGTON CO  SUNNY     80  63  55 S9        30.31F
LIMON CO       SUNNY     79  59  50 S10       30.38S
$$

...UNOFFICIAL OBSERVATIONS...

CITY           SKY/WX    TMP DP  RH WIND       PRES   REMARKS
COLBY KS       SUNNY     84  70  61 S8        30.26F
NORTON KS      SUNNY     86  64  48 SW9       30.20S
SHARON SPRINGS   N/A     81  71  70 S9          N/A
KIT CARSON CO    N/A     80  62  54 MISG        N/A
$$


USA.gov is the U.S. government's official web portal to all federal, state and local government web resources and services.